Zurück zum Katalog

CHUANG XIN 1-04

AktivWissenschaftSSO
NORAD 40137·PAYLOAD·🇨🇳 China

Gestartet Sep 4, 2014 von Jiuquan Satellite Launch Center

Loading…

Nächste Überflüge (nächste 24 Stunden)

TLE

AktuellSource: Space-Track

Epoche: Sep 14, 2026, 15:00 UTC

1 40137U 14051B   26257.62539659  .00000003  00000-0  18453-4 0  9991
2 40137  98.7106 259.5740 0021139 272.8722  87.0041 14.30426507627339

Verfolge CHUANG XIN 1-04 in Echtzeit mit AllMySat

Download on the App Store